Regional Weather Roundup
Issued by NWS

Home | Current Version | Previous Version | Text Only | Print | Product List | Glossary Off
Versions: 1 2 3 4 5 6 7 8 9 10 11 12 13 14 15 16 17 18 19 20 21 22 23 24 25 26 27 28 29 30 31 32 33 34 35 36 37 38 39 40 41 42 43 44 45 46 47 48 49 50

000
ASUS43 KLMK 221610
RWRKY
KENTUCKY REGIONAL WEATHER ROUNDUP
NATIONAL WEATHER SERVICE LOUISVILLE KY
1200 PM EDT MON SEP 22 2014

NOTE "FAIR" INDICATES FEW OR NO CLOUDS BELOW 12,000 FEET
WITH NO SIGNIFICANT WEATHER AND/OR OBSTRUCTIONS TO VISIBILITY.

KYZ001>023-026-027-061>063-070>075-221700-
WESTERN AND SOUTH CENTRAL KENTUCKY

CITY           SKY/WX    TMP DP  RH WIND       PRES   REMARKS
PADUCAH        SUNNY     71  52  50 NE10      30.25R
HENDERSON      SUNNY     64  46  52 N9G16     30.28R
OWENSBORO      MOSUNNY   63  49  60 NE9       30.27R
HOPKINSVILLE   SUNNY     68  51  54 NE8       30.23S
BOWLING GREEN  MOSUNNY   65  49  56 N8        30.23S
GLASGOW        PTSUNNY   64  48  57 N5        30.23S
$$

KYZ024-025-028>034-038-045-046-053-221700-
NORTH CENTRAL KENTUCKY

CITY           SKY/WX    TMP DP  RH WIND       PRES   REMARKS
LOUISVILLE/SDF MOSUNNY   61  45  55 N9G18     30.25S
LOUISVILLE/LOU MOSUNNY   60  43  53 N9        30.26S
FORT KNOX      SUNNY     60  46  59 N8        30.23F
$$

KYZ035>037-039>044-047>052-055>060-089>105-221700-
NORTHEAST KENTUCKY

CITY           SKY/WX    TMP DP  RH WIND       PRES   REMARKS
LEXINGTON      MOSUNNY   60  46  59 NW6       30.24R
COVINGTON      MOSUNNY   57  41  55 N5        30.24S
FRANKFORT      SUNNY     59  43  55 VRB5      30.23R
$$

KYZ054-064>069-076>088-106>120-221700-
SOUTHEAST KENTUCKY

CITY           SKY/WX    TMP DP  RH WIND       PRES   REMARKS
JACKSON        CLOUDY    60  48  64 VRB3      30.21S
LONDON         PTSUNNY   61  47  59 NW8       30.21S
SOMERSET       MOSUNNY   61  45  55 NE9G18    30.23R
MIDDLESBORO    SUNNY     64  48  55 N12G17    30.19S
MONTICELLO     MOSUNNY   67  49  52 N10       30.22S
$$




USA.gov is the U.S. government's official web portal to all federal, state and local government web resources and services.